WA5KWK Weather Reports


Display with metric or nautical units.
time (UTC)temp
F
wind
direction
speed
MPH
gust
MPH
rain 1hr
in
rain 24hr
in
rain mn
in
humidity
%
barometer
mb
20260506160504 55 255 2.0 3.0 0.00 0.00 0.00 75 1019.5
20260506160005 55 219 0.0 2.0 0.00 0.00 0.00 76 1019.3
20260506155505 55 219 2.0 5.0 0.00 0.00 0.00 76 1019.3
20260506155005 55 216 2.0 5.0 0.00 0.00 0.00 77 1019.5
20260506154504 56 219 2.0 3.0 0.00 0.00 0.00 76 1019.6
20260506154004 56 219 2.0 5.0 0.00 0.00 0.00 76 1019.6
20260506153504 56 242 0.0 1.0 0.00 0.00 0.00 77 1019.6
20260506152504 55 242 0.0 0.0 0.00 0.00 0.00 79 1019.4
20260506152004 54 242 0.0 0.0 0.00 0.00 0.00 80 1019.4
20260506151505 54 242 0.0 0.0 0.00 0.00 0.00 81 1019.4
20260506151005 53 242 0.0 0.0 0.00 0.00 0.00 83 1019.4
20260506150505 53 242 0.0 0.0 0.00 0.00 0.00 83 1019.4
20260506150004 52 242 0.0 0.0 0.00 0.00 0.00 87 1019.5
20260506145504 52 242 0.0 0.0 0.00 0.00 0.00 88 1019.5
20260506144504 51 242 0.0 0.0 0.00 0.00 0.00 90 1019.3
20260506144005 51 242 0.0 0.0 0.00 0.00 0.00 90 1019.2
20260506143504 51 242 0.0 0.0 0.00 0.00 0.00 90 1019.2
20260506143005 50 242 0.0 0.0 0.00 0.00 0.00 91 1019.3
20260506142504 50 242 0.0 0.0 0.00 0.00 0.00 91 1019.2
20260506142004 50 175 0.0 0.0 0.00 0.00 0.00 91 1019.2
20260506141504 50 213 0.0 0.0 0.00 0.00 0.00 90 1019.0
20260506141004 50 213 0.0 0.0 0.00 0.00 0.00 90 1019.1
20260506140504 50 213 0.0 0.0 0.00 0.00 0.00 91 1019.1
20260506140005 49 213 0.0 0.0 0.00 0.00 0.00 92 1018.9
20260506135505 49 213 0.0 0.0 0.00 0.00 0.00 92 1018.9
20260506133004 48 212 0.0 0.0 0.00 0.00 0.00 91 1018.9
20260506132005 48 212 0.0 0.0 0.00 0.00 0.00 91 1018.7
20260506131504 48 212 0.0 0.0 0.00 0.00 0.00 92 1018.7
20260506131004 48 213 0.0 0.0 0.00 0.00 0.00 92 1018.7
20260506130505 48 212 0.0 0.0 0.00 0.00 0.00 92 1018.6
20260506125504 48 213 0.0 0.0 0.00 0.00 0.00 92 1018.5
20260506125004 48 213 0.0 0.0 0.00 0.00 0.00 93 1018.6
20260506124504 48 213 0.0 0.0 0.00 0.00 0.00 93 1018.6
20260506124004 48 212 0.0 0.0 0.00 0.01 0.00 93 1018.6
20260506123504 48 213 0.0 0.0 0.00 0.01 0.00 93 1018.4
20260506122005 48 212 0.0 0.0 0.00 0.02 0.00 93 1018.5
20260506121504 48 212 0.0 0.0 0.00 0.02 0.00 93 1018.4
20260506121005 48 212 0.0 0.0 0.00 0.02 0.00 93 1018.3
20260506120504 48 212 0.0 0.0 0.00 0.02 0.00 93 1018.4
20260506120004 48 212 0.0 0.0 0.00 0.02 0.00 93 1018.4
20260506115004 48 212 0.0 0.0 0.00 0.02 0.00 92 1018.4
20260506114504 48 212 0.0 0.0 0.00 0.02 0.00 93 1018.4
20260506114005 48 212 0.0 0.0 0.00 0.02 0.00 93 1018.4
20260506113504 48 212 0.0 0.0 0.00 0.03 0.00 93 1018.4
20260506113004 48 212 0.0 0.0 0.00 0.03 0.00 93 1018.2
20260506112005 48 212 0.0 0.0 0.00 0.03 0.00 93 1018.3
20260506111504 48 212 0.0 0.0 0.00 0.03 0.00 93 1018.2
20260506111004 48 212 0.0 0.0 0.00 0.04 0.00 94 1018.2
20260506110504 48 212 0.0 0.0 0.00 0.04 0.00 94 1018.2
20260506110005 48 212 0.0 0.0 0.00 0.04 0.00 94 1018.0
20260506104504 48 212 0.0 0.0 0.00 0.06 0.00 95 1017.8
20260506104004 48 212 0.0 0.0 0.00 0.08 0.00 95 1017.9
20260506103505 48 212 0.0 0.0 0.00 0.08 0.00 95 1017.9
20260506103005 48 212 0.0 0.0 0.00 0.09 0.00 95 1017.9
20260506102507 48 212 0.0 0.0 0.00 0.09 0.00 95 1017.8
20260506102008 47 212 0.0 0.0 0.00 0.10 0.00 95 1017.7
20260506101507 47 212 0.0 0.0 0.00 0.10 0.00 95 1017.6
20260506101005 47 212 0.0 0.0 0.00 0.10 0.00 95 1017.6
20260506100004 47 212 0.0 0.0 0.00 0.10 0.00 95 1017.6
20260506095505 47 212 0.0 0.0 0.00 0.10 0.00 95 1017.5
20260506095004 47 212 0.0 0.0 0.00 0.10 0.00 95 1017.7
20260506094504 47 212 0.0 0.0 0.00 0.10 0.00 95 1017.5
20260506093504 47 212 0.0 0.0 0.00 0.10 0.00 95 1017.4
20260506093004 47 212 0.0 0.0 0.00 0.10 0.00 95 1017.3
20260506092504 47 212 0.0 0.0 0.00 0.10 0.00 95 1017.4
20260506091505 47 212 0.0 0.0 0.00 0.10 0.00 94 1017.4
20260506091004 47 212 0.0 0.0 0.00 0.10 0.00 94 1017.5
20260506090504 48 212 0.0 0.0 0.00 0.10 0.00 94 1017.6
20260506090004 48 212 0.0 0.0 0.00 0.10 0.00 95 1017.6
20260506085505 48 212 0.0 0.0 0.00 0.10 0.00 95 1017.5
20260506085005 48 212 0.0 0.0 0.00 0.10 0.00 94 1017.6
20260506084504 48 212 0.0 0.0 0.00 0.10 0.00 94 1017.6
20260506083505 48 212 0.0 0.0 0.00 0.10 0.00 94 1017.8
20260506083006 48 212 0.0 0.0 0.00 0.10 0.00 94 1017.8
20260506082505 48 212 0.0 0.0 0.00 0.10 0.00 95 1017.8
20260506081504 49 212 0.0 0.0 0.00 0.10 0.00 95 1017.8
20260506081004 49 212 0.0 0.0 0.00 0.10 0.00 95 1017.8
20260506073004 48 212 1.0 2.0 0.00 0.11 0.00 95 1018.0
20260506072504 48 212 1.0 2.0 0.00 0.11 0.00 94 1017.7
20260506072004 48 212 0.0 0.0 0.00 0.12 0.00 94 1017.6
20260506071504 48 212 0.0 0.0 0.00 0.12 0.00 94 1017.5
20260506070505 48 212 0.0 0.0 0.00 0.12 0.00 94 1017.2
20260506062004 49 212 1.0 2.0 0.00 0.21 0.13 94 1017.0
20260506061504 49 212 0.0 0.0 0.00 0.21 0.13 94 1017.0
20260506051004 48 212 0.0 0.0 0.00 0.23 0.13 94 1016.5
20260506045004 49 212 1.0 2.0 0.00 0.23 0.13 94 1016.3
20260506044504 49 212 1.0 2.0 0.00 0.23 0.13 94 1016.1
20260506044004 49 212 1.0 2.0 0.00 0.23 0.13 94 1016.2
20260506043505 48 212 0.0 0.0 0.00 0.23 0.13 94 1016.2
20260506043004 48 212 0.0 0.0 0.00 0.23 0.13 94 1016.2
20260506042504 49 212 0.0 0.0 0.00 0.23 0.13 94 1016.2
20260506042004 49 212 0.0 1.0 0.00 0.24 0.13 93 1016.1
20260506041504 49 212 1.0 2.0 0.00 0.24 0.13 93 1016.0
20260506041004 49 212 0.0 1.0 0.00 0.24 0.13 93 1016.0
20260506040504 49 212 1.0 2.0 0.00 0.24 0.13 93 1016.0
20260506040004 49 212 0.0 0.0 0.00 0.24 0.13 93 1015.9
20260506035503 49 212 0.0 0.0 0.00 0.24 0.13 93 1015.9
20260506035004 49 212 0.0 0.0 0.00 0.24 0.13 93 1015.8
20260506034504 49 212 0.0 1.0 0.00 0.24 0.13 92 1015.5
20260506034004 49 212 0.0 0.0 0.00 0.24 0.13 92 1015.5
20260506033504 49 212 0.0 0.0 0.00 0.24 0.13 92 1015.3
20260506033005 50 212 0.0 0.0 0.00 0.24 0.13 92 1015.3
20260506032504 50 212 0.0 1.0 0.00 0.24 0.13 92 1015.3
20260506032004 50 212 0.0 0.0 0.00 0.24 0.13 92 1015.2
20260506031504 50 212 1.0 2.0 0.00 0.24 0.13 92 1015.3
20260506031004 50 212 0.0 2.0 0.00 0.24 0.13 92 1015.2
20260506030504 50 212 1.0 1.0 0.00 0.24 0.13 92 1015.1
20260506030004 51 212 0.0 1.0 0.00 0.24 0.13 92 1015.2
20260506025504 51 212 1.0 2.0 0.00 0.24 0.13 92 1015.2
20260506025004 51 212 1.0 2.0 0.00 0.24 0.13 92 1015.4
20260506024504 51 212 0.0 0.0 0.00 0.24 0.13 92 1015.3
20260506024004 51 212 0.0 0.0 0.00 0.24 0.13 92 1015.2
20260506023004 51 212 0.0 0.0 0.00 0.24 0.13 92 1015.3
20260506022504 51 212 0.0 0.0 0.00 0.24 0.13 92 1015.3
20260506022004 51 212 0.0 0.0 0.00 0.24 0.13 92 1015.5
20260506021504 51 212 0.0 0.0 0.00 0.24 0.13 92 1015.4
20260506021004 51 212 0.0 0.0 0.00 0.24 0.13 92 1015.1
20260506020504 51 212 0.0 0.0 0.00 0.24 0.13 92 1015.5
20260506020004 51 213 0.0 0.0 0.00 0.24 0.13 92 1015.2
20260506014005 51 212 0.0 0.0 0.00 0.24 0.13 92 1015.0
20260506013504 51 212 0.0 0.0 0.00 0.24 0.13 92 1015.1
20260506013003 51 212 0.0 0.0 0.00 0.24 0.13 92 1015.1
20260506012504 51 212 0.0 0.0 0.00 0.24 0.13 92 1015.1
20260506012006 51 212 0.0 0.0 0.00 0.24 0.13 92 1015.1
20260506011006 51 212 0.0 0.0 0.00 0.24 0.13 92 1015.0
20260506010506 51 212 0.0 0.0 0.00 0.24 0.13 92 1015.1
20260506010006 51 212 0.0 0.0 0.00 0.24 0.13 92 1015.0
20260506005506 51 212 0.0 0.0 0.00 0.24 0.13 93 1015.0
20260506005006 51 212 0.0 0.0 0.00 0.24 0.13 92 1015.0
20260506004506 50 212 0.0 1.0 0.00 0.24 0.13 92 1015.0
20260506004006 50 212 1.0 2.0 0.00 0.24 0.13 91 1015.0
20260506003006 51 213 1.0 3.0 0.00 0.24 0.13 90 1014.9
20260506002506 51 213 1.0 3.0 0.00 0.24 0.13 90 1014.9
20260506002006 51 213 0.0 2.0 0.00 0.24 0.13 90 1014.8
20260506001506 51 213 0.0 2.0 0.00 0.24 0.13 90 1014.8
20260506001005 51 213 1.0 2.0 0.00 0.24 0.13 89 1014.7
20260506000505 51 213 0.0 2.0 0.00 0.24 0.13 90 1014.8
20260506000005 51 213 0.0 1.0 0.00 0.24 0.13 91 1014.8
20260505235506 51 213 1.0 2.0 0.00 0.24 0.13 90 1014.6
20260505235006 51 213 1.0 3.0 0.00 0.24 0.13 90 1014.6
20260505234506 51 213 1.0 2.0 0.00 0.24 0.13 90 1014.6
20260505234006 51 213 0.0 1.0 0.00 0.24 0.13 91 1014.6
20260505233505 51 213 0.0 2.0 0.00 0.24 0.13 92 1014.5
20260505232506 50 213 0.0 0.0 0.00 0.24 0.13 92 1014.6
20260505232006 50 213 0.0 1.0 0.00 0.24 0.13 92 1014.4
20260505231506 50 213 0.0 2.0 0.00 0.24 0.13 92 1014.5
20260505231006 50 213 0.0 3.0 0.00 0.24 0.13 92 1014.5
20260505230505 50 213 2.0 3.0 0.00 0.24 0.13 91 1014.5
20260505230006 50 213 2.0 3.0 0.00 0.24 0.13 91 1014.5
20260505225505 50 212 1.0 3.0 0.00 0.24 0.13 92 1014.4
20260505225006 50 212 0.0 2.0 0.00 0.24 0.13 92 1014.4
20260505224505 50 212 1.0 3.0 0.00 0.24 0.13 91 1014.4
20260505223506 50 212 2.0 3.0 0.00 0.24 0.13 90 1014.5
20260505223007 50 212 1.0 3.0 0.00 0.24 0.13 90 1014.6
20260505222506 50 212 1.0 3.0 0.00 0.24 0.13 89 1014.6
20260505222006 51 212 2.0 3.0 0.00 0.25 0.13 88 1014.5
20260505221006 51 212 0.0 2.0 0.00 0.25 0.13 89 1014.7
20260505220505 51 212 0.0 2.0 0.00 0.25 0.13 89 1014.7
20260505215005 51 212 0.0 1.0 0.00 0.26 0.13 90 1014.7
20260505214506 50 212 0.0 2.0 0.00 0.26 0.13 90 1014.7
20260505214006 50 212 1.0 2.0 0.00 0.26 0.13 90 1014.7
20260505212507 50 212 1.0 2.0 0.00 0.29 0.13 89 1014.7
20260505212006 50 212 1.0 3.0 0.00 0.31 0.13 88 1014.8
20260505211506 50 212 2.0 3.0 0.00 0.33 0.13 89 1014.7
20260505210505 50 212 2.0 3.0 0.00 0.35 0.13 89 1014.8
20260505205506 50 212 1.0 3.0 0.00 0.36 0.13 89 1014.6
20260505205005 50 212 2.0 3.0 0.00 0.37 0.13 89 1014.6
20260505204506 50 211 1.0 3.0 0.00 0.38 0.13 89 1014.6
20260505203506 50 210 2.0 3.0 0.00 0.38 0.13 88 1014.6
20260505203006 50 210 0.0 2.0 0.00 0.38 0.13 89 1014.5
20260505202505 49 210 0.0 2.0 0.00 0.38 0.13 89 1014.5
20260505201506 50 210 1.0 3.0 0.00 0.38 0.13 89 1014.5
20260505201005 49 210 2.0 3.0 0.00 0.38 0.13 90 1014.5
20260505200506 49 211 1.0 3.0 0.00 0.38 0.13 89 1014.6
20260505200006 49 211 2.0 3.0 0.00 0.38 0.13 89 1014.6
20260505195506 49 199 1.0 3.0 0.00 0.38 0.13 89 1014.7
20260505195007 49 199 2.0 5.0 0.00 0.38 0.13 89 1014.5
20260505194505 49 199 3.0 7.0 0.00 0.38 0.13 89 1014.6
20260505194005 49 175 3.0 6.0 0.00 0.38 0.13 89 1014.5
20260505193006 49 210 2.0 7.0 0.00 0.38 0.13 89 1014.4
20260505192505 49 175 5.0 7.0 0.00 0.38 0.13 88 1014.3
20260505192006 49 178 2.0 5.0 0.00 0.38 0.13 88 1014.3
20260505191506 49 260 2.0 7.0 0.00 0.38 0.13 89 1014.3
20260505191006 49 189 2.0 3.0 0.00 0.38 0.13 89 1014.3
20260505190006 49 189 2.0 5.0 0.00 0.38 0.13 90 1014.2
20260505185505 48 189 0.0 3.0 0.00 0.38 0.13 91 1014.2
20260505185005 48 189 2.0 5.0 0.00 0.38 0.13 91 1014.2
20260505184506 48 273 4.0 8.0 0.00 0.38 0.13 90 1014.3
20260505184005 49 231 3.0 8.0 0.00 0.38 0.13 90 1014.2
20260505183505 49 204 4.0 7.0 0.00 0.38 0.13 90 1014.2
20260505183006 48 213 3.0 5.0 0.00 0.38 0.13 90 1014.2
20260505182506 48 199 5.0 7.0 0.00 0.38 0.13 91 1014.2
20260505181506 49 225 2.0 3.0 0.00 0.38 0.13 91 1014.1
20260505181005 49 232 2.0 8.0 0.00 0.38 0.13 90 1014.0
20260505180006 48 265 5.0 7.0 0.00 0.38 0.13 89 1013.8
20260505175005 49 331 3.0 8.0 0.00 0.39 0.13 89 1013.7
20260505174505 49 343 3.0 6.0 0.00 0.39 0.13 90 1013.7
20260505174006 49 274 2.0 9.0 0.00 0.39 0.13 90 1013.6
20260505172505 49 291 2.0 3.0 0.00 0.40 0.13 88 1013.5
20260505172006 50 278 3.0 7.0 0.00 0.40 0.13 89 1013.4
20260505171506 50 269 5.0 8.0 0.00 0.40 0.13 89 1013.4
20260505171005 49 252 1.0 6.0 0.00 0.40 0.13 89 1013.5
20260505170506 49 252 2.0 5.0 0.00 0.41 0.13 89 1013.4
20260505170005 49 186 2.0 5.0 0.00 0.42 0.13 91 1013.4
20260505165505 49 269 2.0 3.0 0.00 0.43 0.13 90 1013.4
20260505165006 49 266 3.0 6.0 0.00 0.45 0.13 90 1013.3
20260505162506 49 232 0.0 3.0 0.00 0.47 0.13 90 1013.2
20260505162005 49 231 3.0 5.0 0.00 0.47 0.13 92 1013.3
20260505161506 49 148 0.0 1.0 0.00 0.47 0.13 93 1013.2